Simultaneous Nadir Overpasses (SNOs) Predictions

Prediction of SNOs between AQUA and TERRA Satellite Orbit:

Table of predicted SNOs for the next 14.0 days since TLE Epoch: 8/26/2023
Index Date (AQUA) Time (AQUA) Lat,Lon (AQUA) SZA (AQUA ) Date (TERRA) Time (TERRA) Lat,Lon (TERRA) SZA (TERRA ) Distance(km) Time Diff (sec)
1 09/03/2023 05:33:47 74.33, 93.74 66.62 09/03/2023 05:34:51 74.28, 96.99 66.56 97.97 64
2 09/03/2023 06:23:10 -74.30, -98.53 113.40 09/03/2023 06:24:14 -74.26, -95.39 113.45 94.66 64
3 09/03/2023 07:12:32 74.16, 69.45 66.47 09/03/2023 07:13:38 74.13, 71.98 66.44 77.01 66
4 09/03/2023 08:01:55 -74.13,-122.83 113.55 09/03/2023 08:03:02 -74.06,-120.52 113.63 70.75 67
5 09/03/2023 08:51:18 74.04, 45.02 66.38 09/03/2023 08:52:25 73.99, 46.97 66.31 59.92 67
6 09/03/2023 09:40:40 -73.96,-147.14 113.70 09/03/2023 09:41:49 -73.92,-145.53 113.75 49.80 69
7 09/03/2023 10:30:03 73.87, 20.71 66.23 09/03/2023 10:31:12 73.84, 21.97 66.19 38.90 69
8 09/03/2023 11:19:26 -73.84,-171.57 113.80 09/03/2023 11:20:36 -73.77,-170.52 113.87 33.16 70
9 09/03/2023 12:08:49 73.75, -3.72 66.13 09/03/2023 12:09:59 73.70, -3.03 66.07 22.21 70
10 09/03/2023 12:58:11 -73.67, 164.11 113.95 09/03/2023 12:59:23 -73.63, 164.48 113.99 12.36 72
11 09/03/2023 13:47:34 73.58, -28.04 65.98 09/03/2023 13:48:46 73.55, -28.02 65.95 2.75 72
12 09/03/2023 14:36:57 -73.55, 139.67 114.04 09/03/2023 14:38:09 -73.54, 139.60 114.06 2.50 72
13 09/03/2023 15:26:22 73.56, -52.71 65.99 09/03/2023 15:27:30 73.56, -52.68 65.99 0.88 68
14 09/03/2023 16:15:45 -73.53, 115.00 114.03 09/03/2023 16:16:53 -73.55, 114.94 114.02 2.76 68
15 09/03/2023 17:05:10 73.54, -77.37 66.00 09/03/2023 17:06:15 73.52, -77.45 65.97 3.44 65
16 09/03/2023 17:54:34 -73.57, 90.23 113.97 09/03/2023 17:55:37 -73.56, 90.28 113.98 1.85 63
17 09/03/2023 18:43:58 73.53,-102.04 66.00 09/03/2023 18:44:59 73.53,-102.11 66.01 2.48 61
18 09/03/2023 19:33:22 -73.55, 65.56 113.96 09/03/2023 19:34:21 -73.57, 65.62 113.94 2.94 59
19 09/03/2023 20:22:47 73.56,-126.82 66.07 09/03/2023 20:23:43 73.55,-126.77 66.05 2.38 56
20 09/03/2023 21:12:10 -73.53, 40.90 113.96 09/03/2023 21:13:06 -73.53, 40.85 113.96 1.51 56
21 09/03/2023 22:01:35 73.55,-151.48 66.07 09/03/2023 22:02:27 73.56,-151.44 66.08 1.86 52
22 09/03/2023 22:50:58 -73.52, 16.23 113.95 09/03/2023 22:51:50 -73.54, 16.19 113.92 2.92 52
23 09/03/2023 23:40:23 73.53,-176.15 66.08 09/03/2023 23:41:12 73.52,-176.21 66.07 2.46 49
24 09/04/2023 00:29:47 -73.55, -8.55 113.88 09/04/2023 00:30:34 -73.55, -8.47 113.89 2.42 47
25 09/04/2023 01:19:11 73.52, 159.19 66.09 09/04/2023 01:19:56 73.53, 159.13 66.10 2.15 45
26 09/04/2023 02:08:35 -73.54, -33.21 113.88 09/04/2023 02:09:19 -73.51, -33.24 113.90 2.96 44
27 09/04/2023 02:58:00 73.55, 134.41 66.15 09/04/2023 02:58:40 73.54, 134.47 66.14 2.47 40
28 09/04/2023 03:47:23 -73.52, -57.88 113.87 09/04/2023 03:48:03 -73.52, -57.90 113.86 0.72 40
29 09/04/2023 04:36:48 73.54, 109.74 66.16 09/04/2023 04:37:24 73.55, 109.81 66.18 2.81 36
30 09/04/2023 05:26:10 -73.51, -82.55 113.86 09/04/2023 05:26:46 -73.54, -82.56 113.83 3.33 36
31 09/04/2023 06:15:35 73.52, 85.07 66.17 09/04/2023 06:16:08 73.51, 85.04 66.16 1.52 33
32 09/04/2023 07:04:59 -73.54,-107.32 113.80 09/04/2023 07:05:30 -73.55,-107.22 113.79 3.23 31
33 09/04/2023 07:54:23 73.50, 60.41 66.18 09/04/2023 07:54:52 73.52, 60.38 66.20 2.13 29
34 09/04/2023 08:43:47 -73.53,-131.99 113.79 09/04/2023 08:44:15 -73.51,-131.99 113.81 2.23 28
35 09/04/2023 09:33:12 73.54, 35.63 66.24 09/04/2023 09:33:36 73.53, 35.72 66.24 2.94 24
36 09/04/2023 10:22:35 -73.51,-156.66 113.78 09/04/2023 10:22:59 -73.52,-156.65 113.77 0.82 24
37 09/04/2023 11:12:00 73.52, 10.96 66.25 09/04/2023 11:12:21 73.49, 10.95 66.22 3.68 21
38 09/04/2023 12:01:23 -73.50, 178.68 113.77 09/04/2023 12:01:44 -73.48, 178.58 113.79 3.74 21
39 09/04/2023 12:50:48 73.51, -13.70 66.26 09/04/2023 12:51:05 73.50, -13.71 66.26 0.68 17
40 09/04/2023 13:40:11 -73.48, 154.01 113.76 09/04/2023 13:40:28 -73.49, 153.92 113.75 3.17 17
41 09/04/2023 14:29:36 73.49, -38.37 66.27 09/04/2023 14:29:49 73.51, -38.37 66.29 2.41 13
42 09/04/2023 15:19:00 -73.52, 129.23 113.70 09/04/2023 15:19:12 -73.50, 129.25 113.71 1.84 12
43 09/04/2023 16:08:24 73.48, -63.04 66.28 09/04/2023 16:08:34 73.47, -63.14 66.28 3.42 10
44 09/04/2023 16:57:48 -73.50, 104.57 113.69 09/04/2023 16:57:56 -73.51, 104.59 113.68 1.59 8
45 09/04/2023 17:47:13 73.51, -87.82 66.34 09/04/2023 17:47:18 73.48, -87.80 66.31 3.25 5
46 09/04/2023 18:36:36 -73.48, 79.90 113.68 09/04/2023 18:36:41 -73.47, 79.82 113.69 2.80 5
47 09/04/2023 19:26:01 73.50,-112.48 66.35 09/04/2023 19:26:02 73.50,-112.47 66.35 0.54 1
48 09/04/2023 20:15:24 -73.47, 55.23 113.67 09/04/2023 20:15:25 -73.48, 55.16 113.65 2.66 1
49 09/04/2023 21:04:49 73.48,-137.15 66.36 09/04/2023 21:04:46 73.51,-137.13 66.39 2.86 3
50 09/04/2023 21:54:13 -73.51, 30.45 113.61 09/04/2023 21:54:09 -73.49, 30.50 113.62 1.97 4
51 09/04/2023 22:43:37 73.47,-161.82 66.37 09/04/2023 22:43:31 73.47,-161.90 66.37 2.60 6
52 09/04/2023 23:33:01 -73.49, 5.79 113.60 09/04/2023 23:32:53 -73.51, 5.84 113.58 2.43 8
53 09/05/2023 00:22:26 73.50, 173.41 66.43 09/05/2023 00:22:15 73.48, 173.44 66.41 3.11 11
54 09/05/2023 01:11:49 -73.47, -18.88 113.59 09/05/2023 01:11:38 -73.46, -18.93 113.60 1.90 11
55 09/05/2023 02:01:14 73.49, 148.74 66.44 09/05/2023 02:00:59 73.49, 148.78 66.44 1.30 15
56 09/05/2023 02:50:37 -73.46, -43.55 113.58 09/05/2023 02:50:22 -73.48, -43.59 113.56 2.32 15
57 09/05/2023 03:40:02 73.47, 124.07 66.45 09/05/2023 03:39:43 73.50, 124.12 66.48 3.41 19
58 09/05/2023 04:29:26 -73.50, -68.33 113.51 09/05/2023 04:29:06 -73.49, -68.25 113.52 2.52 20
59 09/05/2023 05:18:50 73.46, 99.40 66.46 09/05/2023 05:18:28 73.46, 99.35 66.47 1.79 22
60 09/05/2023 06:08:14 -73.48, -92.99 113.50 09/05/2023 06:07:50 -73.50, -92.91 113.49 3.26 24
61 09/05/2023 06:57:39 73.49, 74.62 66.53 09/05/2023 06:57:12 73.47, 74.69 66.50 3.29 27
62 09/05/2023 07:47:02 -73.46,-117.66 113.50 09/05/2023 07:46:35 -73.46,-117.68 113.50 1.07 27
63 09/05/2023 08:36:27 73.48, 49.96 66.54 09/05/2023 08:35:56 73.48, 50.02 66.54 2.14 31
64 09/05/2023 09:25:50 -73.45,-142.33 113.49 09/05/2023 09:25:19 -73.47,-142.35 113.47 2.23 31
65 09/05/2023 10:15:15 73.46, 25.29 66.55 09/05/2023 10:14:41 73.44, 25.25 66.52 2.84 34
66 09/05/2023 11:04:39 -73.49,-167.11 113.42 09/05/2023 11:04:03 -73.48,-167.01 113.43 3.26 36
67 09/05/2023 11:54:03 73.45, 0.62 66.56 09/05/2023 11:53:25 73.45, 0.59 66.56 1.02 38
68 09/05/2023 12:43:27 -73.47, 168.22 113.41 09/05/2023 12:42:48 -73.44, 168.22 113.44 3.54 39
69 09/05/2023 13:32:51 73.43, -24.05 66.57 09/05/2023 13:32:09 73.46, -24.07 66.60 3.39 42
70 09/05/2023 14:22:15 -73.46, 143.56 113.40 09/05/2023 14:21:32 -73.45, 143.56 113.41 0.61 43
71 09/05/2023 15:11:40 73.47, -48.82 66.63 09/05/2023 15:10:53 73.47, -48.73 66.63 2.98 47
72 09/05/2023 16:01:03 -73.44, 118.89 113.39 09/05/2023 16:00:16 -73.46, 118.90 113.37 2.38 47
73 09/05/2023 16:50:28 73.45, -73.49 66.64 09/05/2023 16:49:38 73.43, -73.50 66.62 2.52 50
74 09/05/2023 17:39:51 -73.43, 94.22 113.38 09/05/2023 17:39:01 -73.42, 94.13 113.39 2.93 50
75 09/05/2023 18:29:16 73.44, -98.16 66.65 09/05/2023 18:28:22 73.44, -98.16 66.65 0.45 54
76 09/05/2023 19:18:40 -73.46, 69.44 113.32 09/05/2023 19:17:45 -73.43, 69.47 113.35 3.50 55
77 09/05/2023 20:08:04 73.42,-122.83 66.66 09/05/2023 20:07:06 73.45,-122.83 66.69 3.37 58
78 09/05/2023 20:57:28 -73.45, 44.77 113.31 09/05/2023 20:56:29 -73.44, 44.81 113.31 1.13 59
79 09/05/2023 21:46:52 73.41,-147.50 66.67 09/05/2023 21:45:51 73.41,-147.60 66.67 3.18 61
80 09/05/2023 22:36:16 -73.43, 20.11 113.30 09/05/2023 22:35:13 -73.45, 20.14 113.28 2.75 63
81 09/05/2023 23:25:41 73.45,-172.28 66.73 09/05/2023 23:24:35 73.42,-172.26 66.71 2.55 66
82 09/06/2023 00:15:04 -73.42, -4.56 113.29 09/06/2023 00:13:58 -73.41, -4.63 113.29 2.05 66
83 09/06/2023 01:04:29 73.43, 163.06 66.74 09/06/2023 01:03:19 73.43, 163.08 66.75 0.87 70
84 09/06/2023 01:53:52 -73.40, -29.23 113.28 09/06/2023 01:52:42 -73.42, -29.29 113.26 3.04 70
85 09/06/2023 02:43:16 73.36, 138.50 66.70 09/06/2023 02:42:04 73.39, 138.31 66.73 6.84 72
86 09/06/2023 03:32:40 -73.39, -53.90 113.27 09/06/2023 03:31:27 -73.38, -54.06 113.27 5.03 73
87 09/06/2023 04:22:02 73.24, 114.05 66.60 09/06/2023 04:20:51 73.25, 113.33 66.61 23.15 71
88 09/06/2023 05:11:25 -73.21, -78.24 113.42 09/06/2023 05:10:14 -73.24, -79.04 113.39 25.68 71
89 09/06/2023 06:00:47 73.07, 89.70 66.46 09/06/2023 05:59:38 73.10, 88.35 66.49 43.92 69
90 09/06/2023 06:50:11 -73.10,-102.70 113.51 09/06/2023 06:49:01 -73.09,-104.02 113.51 42.66 70
91 09/06/2023 07:39:33 72.95, 65.24 66.36 09/06/2023 07:38:25 72.95, 63.37 66.37 60.98 68
92 09/06/2023 08:28:55 -72.92,-127.05 113.66 09/06/2023 08:27:47 -72.94,-128.99 113.63 63.27 68
93 09/06/2023 09:18:17 72.78, 40.88 66.21 09/06/2023 09:17:11 72.80, 38.40 66.25 81.70 66
94 09/06/2023 10:07:40 -72.75,-151.41 113.81 09/06/2023 10:06:34 -72.79,-153.96 113.75 83.95 66



Historial Predications of SNOs between AQUA and TERRA
